Vertical_Velocity
-0 -0 -0 -0 0 1 1 1 2 2 2 2 2 2 3 4 4 5 6 8 8 8 8 9 8 7 7 7 7 6 5 4 3 1 -0 0 1 2 3 3 3 3 2 1 -0 -1 -1 1 0 -0 -1 1 4 8 12 13 12 14 16 17 18 19 18 14 6 0 -2 -1 1
0 0 1 1 1 1 2 2 2 2 2 1 1 0 0 1 2 3 4 6 6 7 8 9 9 9 9 8 8 8 7 7 5 3 1 0 0 1 3 3 3 2 2 0 -0 -1 -1 -1 -1 -1 -0 1 5 9 12 11 12 14 16 17 19 17 14 12 6 0 -3 -1 1
0 1 1 1 2 2 2 2 2 2 1 -0 -0 -0 -1 -0 1 1 2 2 3 5 6 8 9 10 10 9 9 9 9 9 8 7 4 2 1 2 3 4 3 2 1 -0 -1 -1 -0 -0 -0 -0 0 2 4 4 5 8 13 16 17 19 18 18 16 13 8 3 -0 1 -0
0 1 1 1 2 3 3 3 3 2 2 1 -0 -1 -1 -1 0 0 0 1 2 2 3 4 6 7 8 9 9 9 9 10 10 10 8 5 4 3 3 4 5 4 2 -0 -1 1 3 5 3 2 2 5 4 2 3 5 10 13 14 15 16 17 19 21 18 17 16 13 8
-0 -0 0 1 1 2 2 4 4 3 2 1 0 -0 -0 1 0 0 1 1 1 1 1 2 2 3 5 8 9 9 9 10 10 11 10 9 7 5 4 4 3 3 4 6 2 1 2 4 3 5 7 6 3 3 4 4 7 8 8 7 8 8 11 16 20 22 22 20 14
-0 -1 -0 -0 1 1 2 3 3 3 2 1 1 1 1 2 2 1 1 1 0 0 0 1 0 1 3 6 7 8 9 9 10 10 11 10 8 7 6 4 2 1 2 5 3 0 -1 -0 1 4 6 4 2 2 3 5 6 7 6 4 3 3 3 1 2 4 7 6 3
0 -0 -1 -1 0 1 2 3 3 2 1 1 1 1 2 3 3 2 1 0 0 1 1 1 1 1 3 4 5 6 7 8 9 10 10 10 8 7 6 4 2 1 0 1 1 -0 -1 -0 4 6 6 4 2 2 2 4 6 6 5 2 1 2 3 2 0 0 -0 -1 -2
1 0 0 -0 1 1 2 3 4 3 2 1 2 2 2 3 2 1 1 2 1 1 1 2 1 2 3 4 4 5 6 7 8 9 10 9 8 6 5 3 2 1 -0 -1 0 0 0 1 3 5 6 5 3 2 2 2 2 3 4 2 1 2 3 3 3 3 2 1 -0
1 1 1 1 1 2 2 3 4 4 4 3 3 2 2 2 2 2 2 2 1 1 1 1 1 2 3 3 3 4 5 6 7 7 8 8 6 5 4 2 2 0 -1 -1 -0 1 2 2 1 2 3 4 3 2 1 2 1 1 2 2 2 2 3 4 4 4 3 2 1
2 2 2 2 2 2 3 3 4 5 5 4 4 3 3 2 2 2 2 1 1 1 1 -0 1 2 2 2 3 4 4 5 6 6 6 6 5 3 2 1 0 -0 -1 -0 0 1 2 3 2 1 1 2 2 1 1 2 1 0 -0 1 2 3 3 3 4 3 3 2 1
3 4 4 3 2 3 4 3 4 5 6 4 5 5 4 2 2 2 2 3 3 2 0 0 1 0 -0 2 3 4 4 5 5 5 4 3 2 1 0 -1 -1 -1 -1 -0 1 2 2 3 3 2 2 2 2 2 1 1 1 0 -0 -0 2 2 2 1 2 2 2 2 1
2 3 3 3 3 4 4 4 4 5 5 4 5 5 4 2 2 3 3 4 4 2 1 1 -0 -1 -1 2 2 3 4 5 4 4 3 1 0 -1 -2 -2 -2 -1 -0 0 2 2 2 2 2 3 3 2 2 2 2 2 2 1 -0 -0 1 2 1 0 0 0 1 1 1
-0 1 1 2 3 4 4 4 5 5 5 4 5 5 5 3 3 3 4 4 3 3 2 1 -1 -1 -0 1 2 3 4 4 3 2 1 -0 -1 -2 -3 -2 -1 -0 1 2 2 2 1 1 2 3 2 2 2 2 2 3 2 2 1 1 1 1 0 -1 -1 -0 2 5 6
-3 -2 -1 0 1 1 2 3 4 4 5 4 4 5 4 3 3 3 3 2 3 3 3 1 0 0 0 0 2 2 2 2 1 0 -1 -2 -2 -2 -2 -1 0 1 2 3 3 2 1 3 5 4 3 3 2 3 3 3 3 2 2 2 1 -0 -1 -1 1 7 12 16 16
-4 -3 -2 -1 -1 -0 1 3 3 4 3 2 2 3 4 2 3 3 2 1 2 3 3 2 1 0 0 0 1 1 1 0 -1 -1 -2 -1 -1 -0 0 1 2 3 3 3 3 1 1 3 5 5 3 1 2 3 3 3 2 2 2 1 1 -0 -0 -1 7 14 19 19 18
-4 -3 -2 -2 -2 -2 -0 2 3 4 5 6 8 8 8 5 5 4 2 0 1 2 2 2 1 0 -0 -1 -0 -0 -0 -1 -2 -1 -1 0 1 2 2 3 3 4 4 4 3 2 2 3 4 2 1 -1 1 3 3 2 1 1 1 1 1 0 -0 -1 5 10 12 9 7
-4 -3 -2 -2 -2 -2 -2 -2 -0 2 5 9 12 13 11 10 9 6 2 -0 1 2 2 2 2 1 -1 -2 -1 -1 -1 -2 -1 0 1 2 3 3 3 3 3 4 4 4 4 4 3 3 2 1 0 0 2 2 2 0 -0 0 1 1 1 1 0 -1 -0 2 3 2 1
-4 -4 -3 -2 -2 -1 -1 -0 0 1 1 1 2 3 5 7 8 6 3 1 1 2 2 4 2 0 -1 -2 -2 -1 -1 -0 1 1 2 3 3 3 3 3 3 3 3 4 3 3 3 2 1 0 0 1 1 1 0 -0 0 0 1 1 1 1 0 -0 -1 -1 -0 -0 -1
-6 -6 -4 -3 -2 -1 -0 0 1 1 -0 -1 -2 -1 -1 0 2 4 4 3 2 2 2 3 2 -0 -1 -2 -1 -1 0 1 2 2 3 3 3 3 3 3 3 3 3 2 2 1 1 0 -0 -0 0 1 1 1 1 -0 0 0 0 1 -0 -0 -1 -0 -0 0 0 -0 -1
-8 -7 -6 -5 -3 -2 -1 -0 -0 -0 -0 -1 -1 -0 -0 -1 -1 2 5 5 2 1 -0 1 0 -0 -1 -1 0 1 1 2 3 3 3 3 3 3 3 3 3 2 1 1 -0 -0 -0 -0 -0 -0 0 1 3 3 2 -1 -1 -1 -1 -1 -1 -1 -0 1 1 -0 -0 -1 -1
-8 -8 -7 -6 -4 -2 -1 -1 -1 -1 -1 -1 1 5 8 7 5 6 7 5 1 -1 -2 -1 -0 -0 -0 0 1 2 2 2 2 2 2 2 2 2 2 3 2 1 0 -1 -1 -1 -1 -0 -0 0 0 1 2 2 1 -2 -2 -2 -1 -1 -1 0 1 2 1 -0 -0 -0 -0
-6 -7 -7 -6 -4 -3 -2 -1 -1 -1 -1 -2 -0 3 5 6 6 5 4 2 -0 -2 -2 -2 -0 0 1 1 2 2 2 2 2 2 2 2 2 2 2 2 2 1 -0 -1 -1 -1 -1 -0 0 0 0 0 0 -0 -1 -2 -1 -1 -1 -0 1 2 2 2 1 1 1 1 1
-5 -6 -6 -6 -5 -4 -3 -3 -2 -2 -2 -2 -1 -0 1 2 2 2 1 1 -0 -1 -1 -0 0 1 1 2 2 2 2 1 1 1 1 1 1 1 1 1 1 1 -0 -1 -1 -1 -0 0 -0 -0 -0 -0 -1 -1 -1 -1 -1 -0 0 0 1 1 1 1 2 2 1 1 1
-4 -4 -5 -5 -5 -5 -4 -4 -3 -3 -3 -2 -1 -0 1 1 1 1 1 0 -0 -0 0 0 1 1 1 2 1 1 1 1 1 0 0 0 -0 -0 -0 -0 0 -0 -1 -1 -1 -0 0 -0 -0 -1 -1 -0 -0 -0 -1 -0 -0 0 0 1 1 1 2 2 2 2 1 0 -0
-3 -3 -4 -4 -4 -4 -4 -4 -4 -3 -2 -2 -1 -1 -0 -0 0 0 0 -0 -1 -1 -1 -0 -0 -0 0 1 1 1 0 0 -0 -0 -1 -1 -1 -1 -2 -2 -2 -1 -1 -1 -0 0 0 -0 -0 -0 -0 -0 -0 -0 -0 -0 -0 0 0 1 1 1 1 1 1 1 0 -0 -0
-3 -3 -3 -4 -4 -4 -4 -3 -3 -2 -2 -1 -0 -0 0 1 1 1 0 -1 -2 -1 1 3 2 -0 -1 -1 -1 -0 -0 -1 -1 -2 -2 -3 -3 -3 -2 -2 -2 -1 -1 -0 0 0 0 0 0 0 -0 -0 -1 -1 -1 -1 -1 -0 -0 1 2 1 1 -0 -1 -1 -1 -1 0
-3 -3 -3 -4 -4 -4 -3 -3 -2 -1 -1 -0 0 1 1 1 1 1 0 -1 -1 0 3 7 7 4 1 -1 -2 -3 -3 -3 -3 -3 -4 -4 -3 -3 -2 -2 -1 -1 -0 0 0 0 0 0 -0 -0 -0 -1 -1 -1 -0 -0 -1 -1 -0 2 2 2 1 -0 -2 -2 -1 -1 -0
-3 -3 -3 -4 -4 -4 -4 -3 -2 -1 -1 -0 0 0 0 1 1 0 0 0 -0 0 2 4 6 7 6 4 2 0 -0 -1 -2 -3 -3 -3 -2 -2 -2 -1 -1 -0 -0 0 0 0 -0 -0 -0 -0 -0 -0 -0 0 0 -0 -1 -1 -0 0 1 1 1 0 -1 -1 1 2 3
-3 -3 -3 -3 -3 -3 -3 -3 -3 -2 -1 -1 -1 -0 -0 0 0 1 1 1 1 1 1 1 2 3 4 3 2 1 0 -1 -2 -2 -1 -1 -1 -1 -1 -0 0 1 1 1 1 0 -0 -0 -0 0 0 1 -0 -1 -2 -1 2 1 -0 -2 -2 -2 -0 1 4 6 8 7 5
-3 -2 -2 -2 -2 -2 -3 -3 -2 -2 -2 -2 -1 -1 -1 -0 0 0 1 1 1 1 1 1 1 1 1 0 0 0 -0 -1 -1 -1 -0 -0 0 0 1 2 2 2 2 2 1 1 -0 -1 -1 -2 -3 -4 -2 3 8 11 9 5 1 -1 0 4 7 11 11 9 6 2 1
-3 -2 -1 -1 -1 -2 -2 -2 -2 -2 -2 -2 -2 -1 -1 -1 -0 -0 0 1 1 1 1 2 2 2 3 3 3 3 3 2 2 2 2 2 2 2 2 2 3 3 2 1 -0 -1 0 2 3 5 7 9 12 14 14 12 9 7 6 7 9 10 10 8 5 2 0 -1 0
-4 -3 -2 -1 -1 -1 -2 -2 -2 -2 -2 -2 -2 -1 -1 -0 0 1 1 2 2 2 3 3 3 3 4 4 4 4 4 4 4 4 3 2 2 2 2 2 1 0 -0 -0 3 7 12 17 18 18 17 16 14 13 11 8 7 6 7 9 8 6 4 1 -0 -0 -0 0 2
-5 -4 -3 -2 -2 -2 -2 -2 -2 -2 -2 -2 -1 -1 0 1 2 2 3 3 3 4 4 4 4 4 3 3 3 4 4 5 5 4 4 3 3 3 3 3 2 0 0 3 10 15 19 20 18 16 14 11 9 8 6 4 3 3 3 4 3 2 1 1 2 2 3 4 4
-5 -5 -4 -4 -4 -4 -4 -3 -3 -2 -2 -1 -1 -0 1 2 2 3 3 3 3 3 3 3 3 3 2 2 2 3 3 4 4 4 4 5 7 11 15 17 14 10 6 6 10 13 14 13 11 8 6 4 3 2 1 1 1 1 2 2 2 3 4 5 6 6 6 5 4
-6 -5 -5 -5 -5 -5 -5 -5 -4 -3 -2 -1 -1 -0 -0 -0 0 0 0 0 0 0 0 0 0 0 0 -0 0 1 1 2 3 4 8 13 20 25 27 24 19 14 10 6 6 7 6 5 3 1 -0 -1 -1 -0 1 2 2 3 4 5 6 7 8 8 6 5 3 2 3
-6 -5 -5 -5 -5 -5 -5 -6 -5 -4 -3 -2 -1 -1 -2 -2 -2 -2 -2 -2 -2 -2 -2 -2 -1 -1 -1 -0 0 1 2 4 8 12 18 24 25 22 17 12 9 7 5 3 1 0 -0 -1 -1 -1 -0 0 1 2 3 5 6 7 8 8 8 6 5 3 2 1 1 2 3
-5 -5 -4 -4 -4 -4 -4 -5 -5 -5 -4 -3 -2 -2 -2 -2 -3 -3 -3 -3 -2 -2 -1 -1 1 3 5 8 10 11 12 15 19 22 22 19 15 10 7 3 1 0 -1 -1 -2 -2 -1 -1 -0 0 1 2 3 5 6 8 8 7 6 4 3 1 1 1 1 1 2 2 2
-4 -4 -4 -4 -3 -3 -3 -3 -3 -3 -3 -3 -2 -2 -2 -2 -2 -2 -2 -1 -0 1 3 6 10 15 20 24 25 25 24 22 20 17 13 9 6 4 2 0 -1 -1 -1 -1 -1 -1 -0 1 2 3 4 5 6 6 6 4 3 2 1 1 1 1 1 1 1 1 1 1 1
-4 -4 -3 -3 -3 -3 -2 -2 -2 -2 -2 -2 -1 -1 -1 -0 -0 0 1 2 4 7 11 16 21 24 26 25 22 19 17 14 11 9 6 3 1 0 -0 -0 -1 -1 -0 0 0 0 1 2 4 5 6 6 5 4 2 2 1 1 1 1 1 0 -0 -0 0 -0 -0 -1 -0
-4 -3 -2 -2 -2 -2 -2 -2 -2 -2 -2 -1 -1 -0 0 1 1 2 3 5 8 13 17 21 22 21 18 14 12 9 7 5 3 2 1 -0 -1 -1 -1 -1 -0 -0 1 1 1 2 3 4 5 6 6 4 3 2 2 2 2 1 1 0 0 -0 -1 -2 -1 -1 -1 -2 -1
-3 -3 -2 -2 -2 -2 -2 -1 -1 -0 -0 -0 0 0 1 1 1 2 4 6 10 13 15 16 14 11 8 5 4 2 1 1 0 -0 -0 -1 -1 -0 -0 1 1 2 2 2 3 4 5 5 5 5 4 3 3 2 1 1 0 -1 -2 -2 -1 -1 -1 -2 -3 -3 -3 -3 -3
Height
5717 5716 5716 5716 5715 5715 5715 5714 5713 5713 5712 5712 5712 5712 5712 5712 5712 5713 5713 5714 5714 5715 5716 5717 5718 5718 5718 5719 5719 5719 5719 5719 5719 5719 5720 5720 5721 5722 5723 5723 5724 5725 5725 5725 5726 5726 5727 5727 5727 5728 5728 5728 5729 5730 5730 5730 5730 5730 5730 5731 5731 5731 5731 5730 5729 5728 5728 5728 5728
5712 5711 5711 5710 5710 5710 5709 5708 5708 5707 5707 5706 5706 5706 5706 5706 5706 5706 5707 5707 5708 5709 5710 5711 5712 5713 5713 5714 5715 5715 5715 5715 5715 5715 5716 5716 5717 5717 5718 5719 5720 5720 5721 5721 5722 5723 5723 5723 5723 5724 5724 5724 5726 5727 5727 5727 5727 5727 5727 5727 5727 5728 5728 5727 5726 5725 5725 5725 5724
5706 5706 5706 5705 5705 5704 5703 5703 5702 5701 5701 5700 5699 5699 5699 5700 5700 5700 5700 5701 5701 5702 5703 5704 5705 5707 5708 5709 5710 5710 5711 5711 5712 5712 5712 5712 5713 5713 5714 5715 5715 5716 5717 5717 5718 5719 5719 5720 5720 5720 5720 5721 5722 5723 5723 5723 5724 5724 5724 5723 5723 5724 5724 5724 5723 5722 5721 5721 5721
5701 5700 5700 5699 5699 5698 5698 5697 5696 5695 5694 5694 5693 5693 5693 5693 5693 5694 5694 5694 5695 5696 5696 5697 5698 5700 5701 5703 5704 5705 5706 5707 5707 5708 5708 5708 5708 5709 5710 5710 5712 5712 5713 5713 5714 5715 5715 5716 5716 5717 5717 5717 5718 5718 5719 5719 5720 5720 5720 5720 5720 5720 5720 5720 5720 5720 5719 5719 5718
5695 5695 5694 5693 5693 5692 5692 5691 5690 5689 5688 5687 5687 5687 5687 5687 5687 5687 5687 5688 5688 5689 5690 5691 5692 5693 5694 5696 5697 5699 5700 5701 5702 5703 5704 5704 5704 5705 5705 5706 5706 5707 5709 5710 5710 5711 5712 5712 5713 5713 5713 5713 5714 5714 5715 5715 5716 5716 5715 5716 5717 5717 5718 5718 5719 5718 5718 5718 5718
5690 5689 5688 5688 5687 5686 5685 5684 5683 5682 5681 5680 5680 5680 5680 5680 5680 5681 5681 5681 5682 5682 5683 5684 5685 5686 5688 5689 5691 5692 5693 5695 5697 5698 5699 5699 5700 5701 5701 5702 5702 5703 5705 5706 5705 5706 5707 5709 5709 5710 5710 5710 5710 5710 5711 5712 5712 5712 5712 5712 5712 5713 5713 5714 5715 5715 5715 5715 5715
5685 5684 5683 5682 5681 5680 5679 5678 5677 5675 5674 5674 5674 5674 5673 5673 5674 5674 5674 5674 5675 5676 5677 5677 5678 5680 5681 5683 5684 5686 5687 5689 5690 5692 5693 5694 5695 5696 5697 5697 5698 5698 5699 5701 5701 5702 5703 5704 5705 5706 5706 5706 5706 5707 5707 5708 5708 5708 5708 5708 5708 5709 5709 5710 5710 5711 5711 5711 5711
5680 5678 5677 5676 5674 5673 5673 5671 5670 5669 5668 5667 5667 5667 5667 5667 5667 5667 5667 5668 5668 5669 5670 5671 5672 5673 5675 5677 5678 5679 5681 5683 5684 5685 5687 5688 5689 5690 5692 5693 5693 5694 5695 5696 5697 5698 5699 5700 5701 5702 5702 5702 5702 5703 5703 5704 5705 5705 5705 5704 5704 5705 5706 5706 5706 5707 5707 5707 5707
5674 5673 5671 5669 5668 5667 5666 5665 5663 5663 5662 5661 5660 5660 5660 5660 5660 5660 5661 5661 5662 5663 5663 5664 5666 5667 5669 5670 5672 5673 5675 5677 5678 5679 5681 5682 5683 5685 5686 5688 5689 5690 5691 5692 5693 5694 5695 5696 5697 5697 5698 5698 5698 5699 5699 5700 5701 5701 5701 5701 5701 5701 5702 5702 5703 5703 5703 5703 5703
5668 5666 5664 5663 5661 5660 5658 5658 5656 5656 5655 5654 5653 5653 5653 5653 5653 5654 5654 5655 5656 5656 5657 5658 5659 5661 5663 5665 5666 5668 5669 5671 5672 5673 5674 5676 5677 5678 5680 5682 5684 5685 5687 5688 5689 5690 5691 5692 5693 5693 5693 5694 5694 5695 5696 5697 5697 5698 5698 5698 5698 5698 5698 5698 5699 5699 5699 5698 5699
5662 5660 5658 5656 5654 5652 5651 5650 5649 5648 5647 5647 5646 5646 5646 5646 5647 5647 5648 5649 5650 5651 5651 5652 5653 5655 5657 5659 5661 5662 5664 5665 5667 5668 5669 5670 5671 5673 5675 5677 5679 5681 5682 5684 5685 5686 5687 5688 5689 5689 5690 5690 5691 5692 5692 5693 5694 5694 5694 5694 5695 5695 5695 5695 5695 5695 5695 5694 5694
5655 5652 5650 5648 5646 5644 5643 5642 5641 5640 5640 5640 5639 5639 5639 5639 5640 5641 5642 5643 5644 5645 5646 5646 5648 5650 5652 5653 5655 5657 5658 5660 5661 5662 5663 5664 5666 5668 5669 5671 5673 5676 5678 5679 5681 5682 5683 5684 5684 5685 5686 5687 5688 5688 5689 5689 5690 5690 5691 5691 5691 5692 5691 5691 5692 5691 5691 5691 5690
5648 5645 5642 5640 5638 5637 5636 5635 5634 5633 5633 5633 5633 5633 5633 5633 5634 5635 5636 5638 5638 5639 5640 5641 5643 5644 5646 5648 5650 5652 5653 5654 5655 5657 5658 5659 5661 5663 5665 5667 5669 5671 5673 5675 5676 5678 5679 5680 5680 5681 5682 5683 5684 5684 5685 5686 5686 5687 5687 5688 5688 5688 5688 5688 5688 5688 5688 5687 5686
5640 5638 5635 5633 5631 5629 5628 5628 5627 5627 5627 5627 5627 5627 5628 5628 5628 5629 5631 5632 5633 5634 5635 5637 5638 5640 5642 5643 5645 5647 5648 5649 5650 5651 5653 5654 5656 5658 5660 5663 5665 5667 5668 5670 5672 5673 5675 5677 5677 5677 5678 5679 5680 5681 5681 5682 5682 5683 5683 5684 5684 5685 5685 5686 5686 5686 5685 5684 5683
5634 5631 5628 5626 5624 5623 5622 5622 5621 5621 5622 5622 5623 5623 5623 5624 5624 5625 5626 5627 5628 5630 5631 5633 5634 5635 5637 5638 5640 5641 5643 5644 5645 5647 5648 5650 5652 5654 5656 5658 5660 5663 5664 5666 5668 5669 5671 5672 5673 5674 5674 5675 5676 5677 5678 5678 5678 5679 5679 5680 5680 5681 5682 5682 5683 5683 5682 5681 5681
5628 5625 5623 5620 5618 5618 5617 5617 5616 5617 5617 5618 5618 5618 5619 5620 5620 5621 5622 5623 5624 5625 5627 5629 5630 5631 5633 5634 5635 5637 5638 5639 5641 5643 5645 5647 5649 5651 5653 5654 5656 5658 5660 5662 5664 5665 5666 5668 5668 5670 5671 5672 5672 5673 5674 5674 5674 5675 5675 5676 5676 5677 5677 5678 5678 5678 5677 5676 5676
5624 5621 5618 5616 5614 5613 5612 5612 5612 5612 5613 5613 5613 5613 5614 5615 5616 5617 5618 5619 5620 5622 5623 5625 5626 5627 5628 5630 5631 5633 5634 5636 5637 5639 5641 5643 5645 5647 5649 5651 5653 5654 5656 5658 5660 5661 5663 5664 5664 5666 5668 5668 5668 5669 5670 5670 5670 5671 5671 5671 5672 5672 5673 5673 5673 5673 5673 5672 5671
5621 5618 5615 5613 5611 5609 5608 5608 5607 5607 5607 5607 5607 5608 5608 5610 5611 5613 5614 5615 5617 5618 5620 5621 5622 5623 5625 5626 5627 5629 5631 5632 5634 5636 5638 5640 5641 5643 5645 5647 5648 5650 5652 5654 5656 5657 5658 5660 5661 5662 5663 5664 5664 5665 5666 5666 5666 5667 5667 5667 5668 5668 5668 5668 5668 5668 5668 5668 5668
5618 5614 5612 5610 5608 5606 5605 5604 5603 5603 5602 5603 5603 5604 5605 5606 5607 5609 5610 5612 5613 5615 5616 5617 5618 5620 5621 5623 5624 5626 5628 5629 5631 5633 5634 5636 5638 5639 5641 5643 5645 5647 5648 5650 5651 5653 5654 5656 5657 5658 5659 5660 5661 5661 5662 5662 5662 5663 5663 5663 5664 5664 5664 5664 5664 5664 5664 5664 5664
5614 5612 5609 5607 5605 5603 5602 5601 5599 5599 5598 5599 5599 5601 5602 5603 5605 5606 5608 5608 5610 5611 5612 5613 5615 5617 5618 5620 5621 5623 5624 5626 5627 5629 5630 5632 5634 5636 5638 5639 5641 5643 5644 5646 5648 5649 5651 5652 5653 5654 5655 5656 5657 5658 5659 5659 5659 5659 5659 5660 5660 5660 5661 5660 5660 5660 5660 5660 5660
5612 5609 5607 5605 5603 5601 5599 5598 5597 5596 5595 5596 5597 5598 5600 5601 5603 5604 5605 5605 5606 5608 5609 5611 5612 5614 5615 5617 5618 5619 5621 5622 5623 5625 5627 5628 5630 5632 5634 5636 5638 5639 5641 5642 5644 5646 5647 5648 5650 5651 5652 5653 5654 5655 5655 5655 5655 5656 5656 5656 5657 5657 5657 5657 5657 5657 5656 5656 5656
5609 5607 5605 5603 5601 5599 5597 5596 5594 5593 5593 5593 5594 5596 5598 5599 5601 5601 5601 5602 5603 5605 5607 5608 5610 5611 5612 5613 5615 5616 5617 5619 5620 5622 5623 5625 5627 5629 5631 5633 5634 5636 5638 5639 5641 5643 5644 5645 5646 5648 5648 5649 5650 5651 5651 5652 5652 5653 5653 5653 5653 5653 5653 5653 5653 5653 5653 5652 5652
5608 5605 5603 5601 5599 5597 5596 5594 5593 5592 5592 5592 5593 5594 5595 5596 5597 5598 5598 5600 5601 5603 5604 5606 5607 5608 5609 5611 5612 5613 5614 5616 5617 5619 5620 5622 5624 5626 5628 5629 5631 5633 5635 5637 5638 5640 5641 5642 5643 5644 5645 5646 5647 5648 5648 5648 5649 5649 5650 5650 5650 5650 5650 5649 5649 5649 5649 5649 5649
5606 5603 5602 5599 5598 5596 5594 5593 5592 5591 5591 5591 5592 5592 5593 5594 5595 5595 5596 5598 5599 5600 5602 5603 5604 5605 5607 5608 5609 5611 5612 5613 5615 5616 5618 5619 5621 5623 5625 5627 5628 5630 5632 5634 5635 5637 5638 5639 5640 5641 5643 5643 5644 5645 5645 5646 5646 5646 5647 5647 5647 5646 5646 5646 5646 5646 5646 5645 5645
5604 5602 5600 5598 5597 5595 5594 5593 5592 5591 5590 5590 5590 5591 5591 5592 5593 5593 5594 5595 5597 5598 5599 5601 5602 5603 5604 5606 5607 5608 5610 5611 5613 5614 5616 5617 5619 5621 5623 5624 5626 5628 5630 5631 5633 5634 5636 5637 5638 5639 5640 5640 5641 5642 5642 5642 5643 5643 5643 5643 5643 5643 5643 5643 5643 5643 5643 5642 5642
5603 5601 5599 5598 5596 5595 5593 5592 5591 5590 5590 5589 5589 5589 5590 5590 5591 5592 5592 5593 5594 5596 5597 5598 5600 5601 5603 5604 5605 5606 5608 5609 5610 5612 5614 5615 5617 5619 5620 5622 5624 5626 5628 5629 5631 5632 5633 5634 5635 5636 5637 5637 5638 5638 5639 5639 5639 5640 5640 5640 5641 5640 5640 5640 5640 5639 5639 5639 5639
5603 5600 5599 5597 5596 5594 5593 5592 5591 5590 5589 5589 5589 5589 5589 5589 5589 5590 5591 5592 5593 5594 5595 5596 5598 5599 5601 5603 5604 5605 5606 5607 5608 5610 5612 5613 5615 5617 5619 5621 5623 5624 5626 5627 5629 5630 5631 5632 5633 5633 5634 5634 5635 5635 5636 5636 5637 5637 5638 5638 5638 5638 5637 5637 5637 5637 5637 5636 5636
5602 5600 5598 5597 5595 5594 5593 5592 5591 5590 5589 5589 5589 5588 5588 5588 5589 5590 5590 5591 5592 5593 5594 5595 5597 5598 5600 5602 5603 5603 5604 5606 5607 5608 5610 5612 5614 5616 5618 5619 5621 5623 5624 5625 5627 5628 5628 5629 5630 5631 5631 5632 5632 5633 5633 5633 5634 5635 5635 5635 5635 5635 5635 5634 5634 5634 5634 5633 5632
5602 5600 5598 5596 5595 5594 5593 5592 5591 5590 5590 5589 5589 5589 5589 5589 5589 5589 5590 5591 5592 5593 5593 5595 5596 5598 5599 5600 5601 5602 5603 5604 5606 5608 5609 5611 5613 5615 5616 5618 5620 5621 5622 5623 5624 5625 5626 5627 5628 5628 5629 5629 5630 5630 5630 5631 5632 5633 5633 5633 5632 5632 5632 5631 5631 5631 5630 5629 5629
5602 5600 5598 5596 5595 5594 5593 5592 5591 5590 5590 5589 5589 5589 5589 5589 5590 5590 5591 5591 5592 5593 5593 5594 5595 5597 5598 5599 5600 5601 5603 5604 5606 5607 5609 5611 5612 5614 5616 5617 5618 5620 5621 5622 5623 5624 5624 5625 5626 5626 5627 5627 5628 5629 5630 5631 5631 5631 5631 5630 5630 5629 5629 5628 5628 5628 5627 5626 5626
5602 5600 5598 5597 5595 5594 5593 5592 5591 5591 5590 5590 5590 5590 5590 5590 5590 5591 5591 5592 5592 5593 5593 5594 5596 5597 5598 5599 5600 5601 5603 5604 5605 5607 5608 5610 5612 5613 5614 5616 5617 5618 5620 5621 5622 5623 5623 5624 5625 5626 5626 5627 5628 5628 5628 5628 5628 5628 5628 5627 5627 5626 5626 5625 5625 5624 5624 5623 5623
5603 5601 5599 5597 5596 5595 5594 5593 5592 5591 5591 5590 5590 5590 5591 5591 5591 5591 5592 5592 5593 5593 5594 5595 5596 5597 5598 5599 5600 5601 5602 5603 5605 5606 5608 5609 5611 5612 5613 5615 5616 5618 5619 5620 5622 5623 5623 5624 5624 5624 5625 5625 5625 5625 5625 5625 5625 5625 5625 5624 5624 5623 5623 5623 5622 5621 5621 5620 5619
5603 5601 5600 5598 5597 5595 5594 5593 5593 5592 5591 5591 5591 5591 5591 5591 5591 5591 5592 5592 5593 5593 5594 5595 5596 5597 5598 5599 5600 5601 5602 5603 5605 5606 5607 5608 5610 5611 5612 5614 5616 5617 5618 5620 5621 5622 5622 5621 5621 5621 5621 5621 5622 5622 5622 5622 5622 5622 5622 5621 5621 5620 5620 5619 5619 5618 5618 5617 5616
5604 5602 5601 5599 5598 5596 5595 5594 5593 5593 5592 5592 5592 5591 5591 5591 5592 5592 5592 5593 5593 5594 5595 5595 5596 5597 5598 5599 5600 5601 5602 5603 5604 5605 5606 5607 5609 5610 5613 5615 5616 5617 5618 5618 5619 5618 5618 5618 5618 5618 5619 5619 5619 5619 5619 5620 5619 5619 5619 5618 5618 5618 5617 5616 5616 5615 5614 5613 5613
5604 5603 5602 5600 5599 5598 5596 5595 5594 5593 5593 5593 5592 5592 5592 5592 5593 5593 5593 5593 5594 5594 5595 5596 5597 5597 5598 5599 5600 5601 5602 5603 5604 5605 5606 5607 5610 5612 5613 5614 5615 5615 5616 5616 5617 5617 5617 5617 5617 5617 5617 5617 5617 5617 5617 5617 5617 5617 5616 5616 5615 5614 5614 5613 5613 5612 5611 5610 5609
5605 5603 5603 5601 5600 5599 5598 5597 5596 5595 5594 5593 5593 5593 5593 5593 5593 5594 5594 5594 5595 5595 5596 5596 5597 5597 5598 5599 5600 5601 5602 5603 5603 5605 5607 5609 5611 5612 5612 5612 5613 5613 5614 5615 5615 5615 5615 5615 5615 5615 5615 5615 5615 5615 5615 5615 5615 5614 5613 5613 5612 5611 5611 5610 5609 5609 5608 5607 5606
5605 5604 5603 5602 5601 5600 5599 5598 5597 5596 5596 5595 5595 5595 5594 5594 5595 5595 5595 5595 5595 5596 5596 5597 5597 5597 5598 5599 5600 5602 5603 5604 5606 5608 5609 5610 5610 5610 5610 5611 5612 5612 5613 5613 5613 5613 5613 5613 5613 5613 5613 5613 5613 5613 5613 5613 5612 5611 5610 5610 5609 5608 5608 5607 5606 5606 5605 5604 5603
5606 5605 5603 5603 5602 5601 5600 5599 5598 5598 5597 5597 5596 5596 5596 5596 5596 5596 5596 5596 5596 5597 5597 5597 5598 5599 5600 5602 5604 5605 5606 5607 5608 5608 5608 5608 5608 5609 5610 5610 5611 5611 5611 5611 5611 5611 5611 5611 5611 5611 5611 5611 5611 5611 5610 5609 5609 5608 5608 5607 5606 5605 5605 5604 5603 5603 5602 5601 5600
5607 5605 5604 5603 5602 5601 5601 5600 5599 5599 5598 5598 5598 5597 5597 5597 5597 5597 5597 5597 5597 5597 5598 5599 5601 5603 5604 5605 5605 5606 5606 5606 5607 5607 5607 5608 5608 5608 5608 5609 5609 5609 5609 5609 5610 5610 5610 5610 5610 5609 5609 5609 5608 5608 5607 5607 5606 5606 5605 5604 5604 5603 5602 5601 5601 5600 5599 5598 5597
5607 5606 5605 5604 5603 5602 5601 5601 5600 5599 5599 5598 5598 5598 5598 5598 5598 5598 5598 5598 5598 5599 5601 5602 5604 5604 5604 5604 5605 5605 5605 5606 5606 5606 5607 5607 5607 5608 5608 5608 5608 5608 5608 5608 5608 5608 5608 5608 5608 5608 5607 5607 5606 5606 5605 5604 5604 5603 5603 5602 5602 5601 5600 5599 5598 5597 5596 5595 5593
5608 5607 5606 5605 5604 5603 5602 5602 5601 5600 5600 5599 5599 5599 5598 5598 5598 5599 5599 5600 5601 5602 5603 5603 5603 5604 5604 5604 5604 5605 5605 5605 5606 5606 5606 5606 5606 5606 5607 5607 5607 5607 5607 5607 5606 5606 5606 5606 5606 5605 5605 5604 5604 5603 5603 5603 5602 5602 5601 5600 5599 5598 5598 5596 5595 5594 5593 5592 5590